Location: Les Chemineaux
(47.3024°N, 1.5104°E)
Time: 05:30:57
(UTC+00:00)

Meteor 1-26 Rocket - Pass Details

Date: 19 May 2025
Orbit: 805 x 928 km, 81.3° (Epoch: 13 June)

Event Time Altitude Azimuth Distance (km) Brightness Sun altitude
Exits shadow 20:53:43 - 174° (S) 2,636 6.3 -11.9°
Reaches altitude 10° 20:53:57 10° 173° (S) 2,550 6.2 -11.9°
Maximum altitude 20:59:39 59° 95° (E) 1,041 4.4 -12.6°
Drops below altitude 10° 21:05:33 10° 18° (NNE) 2,629 7.2 -13.2°
Sets 21:08:05 0° 15° (NNE) 3,584 8.0 -13.5°
